Regional Weather Roundup
Issued by NWS

Home | Current Version | Previous Version | Graphics & Text | Print | Product List | Glossary On
Versions: 1 2 3 4 5 6 7 8 9 10 11 12 13 14 15 16 17 18 19 20 21 22 23 24 25 26 27 28 29 30 31 32 33 34 35 36 37 38 39 40 41 42 43 44 45 46 47 48 49 50
000
ASUS43 KLMK 011102
RWRKY
KENTUCKY REGIONAL WEATHER ROUNDUP
NATIONAL WEATHER SERVICE LOUISVILLE KY
700 AM EDT TUE SEP 01 2015

NOTE "FAIR" INDICATES FEW OR NO CLOUDS BELOW 12,000 FEET
WITH NO SIGNIFICANT WEATHER AND/OR OBSTRUCTIONS TO VISIBILITY.

KYZ001>023-026-027-061>063-070>075-011200-
WESTERN AND SOUTH CENTRAL KENTUCKY

CITY           SKY/WX    TMP DP  RH WIND       PRES   REMARKS
PADUCAH        CLEAR     66  64  93 CALM      30.11R
HENDERSON      CLEAR     64  63  94 CALM      30.10S
OWENSBORO      MOCLDY    70  68  93 SE3       30.12S
HOPKINSVILLE   CLEAR     67  65  94 CALM      30.12S
BOWLING GREEN  CLEAR     64  62  93 CALM      30.14S
GLASGOW        NOT AVBL
$$

KYZ024-025-028>034-038-045-046-053-011200-
NORTH CENTRAL KENTUCKY

CITY           SKY/WX    TMP DP  RH WIND       PRES   REMARKS
LOUISVILLE/SDF PTCLDY    69  65  86 CALM      30.13R
LOUISVILLE/LOU CLEAR     69  65  86 CALM      30.14R
FORT KNOX      NOT AVBL
$$

KYZ035>037-039>044-047>052-055>060-089>105-011200-
NORTHEAST KENTUCKY

CITY           SKY/WX    TMP DP  RH WIND       PRES   REMARKS
LEXINGTON      CLEAR     65  62  90 SE5       30.16R
COVINGTON      CLEAR     66  65  96 CALM      30.14R
FRANKFORT      CLEAR     64  61  90 CALM      30.14R
$$

KYZ054-064>069-076>088-106>120-011200-
SOUTHEAST KENTUCKY

CITY           SKY/WX    TMP DP  RH WIND       PRES   REMARKS
JACKSON        CLEAR     66  64  93 CALM      30.17R
LONDON         CLEAR     65  60  84 CALM      30.16R
SOMERSET       NOT AVBL
MIDDLESBORO    CLOUDY    63  63 100 CALM      30.18R
MONTICELLO     FOG       61  61 100 CALM      30.18S VSB 1/2
$$



USA.gov is the U.S. government's official web portal to all federal, state and local government web resources and services.